Location: Quaker Farms
(41.4276°N, 73.1557°W)
Time: 02:33:05
(UTC+00:00)

Vanguard 3 - All Passes

Search period start: 13 June 2021 00:00
Search period end: 23 June 2021 00:00
Orbit: 508 x 3262 km, 33.3° (Epoch: 12 June)

Date Brightness Start Highest point End Pass type
(mag) Time Alt. Az. Time Alt. Az. Time Alt. Az.
13 Jun - 14:10:59 10° SW 14:15:21 33° SSE 14:22:07 10° E daylight
13 Jun - 16:20:40 10° WSW 16:26:52 48° S 16:37:43 10° ESE daylight
13 Jun - 18:31:35 10° W 18:39:43 37° SSW 18:52:53 10° SE daylight
13 Jun - 20:45:24 10° WSW 20:53:29 19° SSW 21:03:55 10° S daylight
14 Jun - 12:58:53 10° SSW 13:01:57 19° SSE 13:05:55 10° ESE daylight
14 Jun - 15:07:40 10° WSW 15:12:43 43° S 15:21:08 10° ESE daylight
14 Jun - 17:17:59 10° WSW 17:24:50 42° S 17:36:30 10° SE daylight
14 Jun - 19:30:00 10° WSW 19:38:04 26° SSW 19:49:47 10° SSE daylight
15 Jun - 13:54:57 10° SW 13:58:59 32° SSE 14:05:02 10° ESE daylight
15 Jun - 16:04:45 10° WSW 16:10:23 44° S 16:20:00 10° ESE daylight
15 Jun - 18:15:44 10° WSW 18:22:58 32° SSW 18:34:24 10° SE daylight
15 Jun - 20:30:32 10° WSW 20:36:29 15° SSW 20:43:47 10° S daylight
16 Jun - 12:42:38 10° SSW 12:45:35 19° SSE 12:49:16 10° ESE daylight
16 Jun - 14:51:44 10° WSW 14:56:22 40° S 15:03:48 10° ESE daylight
16 Jun - 17:02:08 10° WSW 17:08:16 36° SSW 17:18:26 10° SE daylight
16 Jun - 19:14:30 10° WSW 19:21:15 21° SSW 19:30:37 10° SSE daylight
17 Jun - 13:38:56 10° SW 13:42:41 31° SSE 13:48:03 10° ESE daylight
17 Jun - 15:48:53 10° WSW 15:53:59 38° S 16:02:22 10° ESE daylight
17 Jun - 18:00:03 10° WSW 18:06:21 26° SSW 18:15:50 10° SSE daylight
17 Jun - 20:18:13 10° SW 20:19:38 10° SSW 20:21:08 10° SSW daylight
18 Jun - 12:26:23 10° SSW 12:29:15 20° SSE 12:32:43 10° ESE daylight
18 Jun - 14:35:51 10° WSW 14:40:04 37° S 14:46:34 10° ESE daylight
18 Jun - 16:46:22 10° WSW 16:51:49 30° SSW 17:00:24 10° SE daylight
18 Jun - 18:59:31 10° WSW 19:04:34 15° SSW 19:11:01 10° S daylight
19 Jun - 11:14:51 10° S 11:15:53 11° SSE 11:16:56 10° SE daylight
19 Jun - 13:22:55 10° SW 13:26:26 30° S 13:31:12 10° ESE daylight
19 Jun - 15:33:03 10° WSW 15:37:38 33° S 15:44:48 10° SE daylight
19 Jun - 17:44:37 10° WSW 17:49:49 20° SSW 17:57:08 10° SSE daylight
20 Jun - 12:10:08 10° SW 12:13:00 21° SSE 12:16:16 10° ESE daylight
20 Jun - 14:19:57 10° WSW 14:23:49 32° S 14:29:26 10° ESE daylight
20 Jun - 16:30:44 10° WSW 16:35:25 24° SSW 16:42:20 10° SE daylight
20 Jun - 18:46:18 10° SW 18:47:59 10° SSW 18:49:48 10° SSW daylight
21 Jun - 10:57:44 10° S 10:59:34 13° SSE 11:01:24 10° SE daylight
21 Jun - 13:06:55 10° SW 13:10:14 29° S 13:14:28 10° ESE daylight
21 Jun - 15:17:18 10° WSW 15:21:22 27° S 15:27:18 10° SE daylight
21 Jun - 17:29:38 10° SW 17:33:22 15° SSW 17:38:06 10° S daylight
22 Jun - 11:53:52 10° SW 11:56:47 22° SSE 11:59:55 10° ESE daylight
22 Jun - 14:04:06 10° WSW 14:07:36 28° S 14:12:23 10° SE daylight
22 Jun - 16:15:19 10° WSW 16:19:05 18° SSW 16:24:11 10° SSE daylight
